Location: LewisvilleTX
(33.0462°N, 96.9942°W)
Time: 14:32:09
(UTC+00:00)

MANDRAKE 2 BAKER - Pass Details

Date: 30 May 2022
Orbit: 516 x 532 km, 97.6° (Epoch: 30 June)

Event Time Altitude Azimuth Distance (km) Brightness Sun altitude
Exits shadow 07:57:52 24° 15° (NNE) 1,138 ? -30.9°
Drops below altitude 10° 07:59:33 10° 2° (N) 1,776 ? -30.8°
Sets 08:01:43 0° 356° (N) 2,667 ? -30.6°
